Location: Waverly
(39.3325°N, 76.6061°W)
Time: 08:35:57
(UTC+00:00)

ARIANE 6 FM1 Upper Stage - Pass Details

Date: 12 December 2025
Orbit: 522 x 610 km, 62.0° (Epoch: 14 January)

Event Time Altitude Azimuth Distance (km) Brightness Sun altitude
Rises 11:17:54 0° 192° (SSW) 2,704 6.3 -11.2°
Reaches altitude 10° 11:20:16 10° 183° (S) 1,801 5.5 -10.8°
Maximum altitude 11:23:54 33° 119° (ESE) 921 4.6 -10.1°
Drops below altitude 10° 11:27:29 10° 55° (NE) 1,777 5.7 -9.5°
Sets 11:29:48 0° 45° (NE) 2,662 6.4 -9.1°
